Year,Month,Day,Hour,Minute,Value (Times are PST for temperature in C)
2012,09,26,00,00,10.00
2012,09,26,00,01,10.00
2012,09,26,00,02,10.00
2012,09,26,00,03,10.00
2012,09,26,00,04,9.90
2012,09,26,00,05,9.90
2012,09,26,00,06,9.90
2012,09,26,00,07,9.90
2012,09,26,00,08,9.90
2012,09,26,00,09,9.80
2012,09,26,00,10,9.80
2012,09,26,00,11,9.80
2012,09,26,00,12,9.80
2012,09,26,00,13,9.80
2012,09,26,00,14,9.80
2012,09,26,00,15,9.80
2012,09,26,00,16,9.80
2012,09,26,00,17,9.70
2012,09,26,00,18,9.70
2012,09,26,00,19,9.70
2012,09,26,00,20,9.70
2012,09,26,00,21,9.70
2012,09,26,00,22,9.70
2012,09,26,00,23,9.70
2012,09,26,00,24,9.70
2012,09,26,00,25,9.70
2012,09,26,00,26,9.70
2012,09,26,00,27,9.70
2012,09,26,00,28,9.70
2012,09,26,00,29,9.70
2012,09,26,00,30,9.70
2012,09,26,00,31,9.60
2012,09,26,00,32,9.60
2012,09,26,00,33,9.60
2012,09,26,00,34,9.60
2012,09,26,00,35,9.60
2012,09,26,00,36,9.60
2012,09,26,00,37,9.60
2012,09,26,00,38,9.60
2012,09,26,00,39,9.50
2012,09,26,00,40,9.50
2012,09,26,00,41,9.50
2012,09,26,00,42,9.50
2012,09,26,00,43,9.50
2012,09,26,00,44,9.50
2012,09,26,00,45,9.50
2012,09,26,00,46,9.40
2012,09,26,00,47,9.40
2012,09,26,00,48,9.40
2012,09,26,00,49,9.50
2012,09,26,00,50,9.50
2012,09,26,00,51,9.50
2012,09,26,00,52,9.50
2012,09,26,00,53,9.50
2012,09,26,00,54,9.60
2012,09,26,00,55,9.60
2012,09,26,00,56,9.50
2012,09,26,00,57,9.50
2012,09,26,00,58,9.50
2012,09,26,00,59,9.50
2012,09,26,01,00,9.50
2012,09,26,01,01,9.50
2012,09,26,01,02,9.50
2012,09,26,01,03,9.50
2012,09,26,01,04,9.50
2012,09,26,01,05,9.50
2012,09,26,01,06,9.40
2012,09,26,01,07,9.40
2012,09,26,01,08,9.40
2012,09,26,01,09,9.40
2012,09,26,01,10,9.40
2012,09,26,01,11,9.40
2012,09,26,01,12,9.40
2012,09,26,01,13,9.40
2012,09,26,01,14,9.40
2012,09,26,01,15,9.40
2012,09,26,01,16,9.40
2012,09,26,01,17,9.40
2012,09,26,01,18,9.40
2012,09,26,01,19,9.40
2012,09,26,01,20,9.40
2012,09,26,01,21,9.40
2012,09,26,01,22,9.40
2012,09,26,01,23,9.50
2012,09,26,01,24,9.50
2012,09,26,01,25,9.50
2012,09,26,01,26,9.60
2012,09,26,01,27,9.60
2012,09,26,01,28,9.70
2012,09,26,01,29,9.70
2012,09,26,01,30,9.70
2012,09,26,01,31,9.80
2012,09,26,01,32,9.80
2012,09,26,01,33,9.80
2012,09,26,01,34,9.80
2012,09,26,01,35,9.80
2012,09,26,01,36,9.80
2012,09,26,01,37,9.90
2012,09,26,01,38,9.90
2012,09,26,01,39,9.90
2012,09,26,01,40,9.90
2012,09,26,01,41,9.90
2012,09,26,01,42,9.90
2012,09,26,01,43,9.90
2012,09,26,01,44,9.90
2012,09,26,01,45,9.90
2012,09,26,01,46,9.90
2012,09,26,01,47,9.90
2012,09,26,01,48,9.90
2012,09,26,01,49,9.90
2012,09,26,01,50,9.90
2012,09,26,01,51,9.80
2012,09,26,01,52,9.80
2012,09,26,01,53,9.80
2012,09,26,01,54,9.80
2012,09,26,01,55,9.80
2012,09,26,01,56,9.80
2012,09,26,01,57,9.80
2012,09,26,01,58,9.80
2012,09,26,01,59,9.80
2012,09,26,02,00,9.70
2012,09,26,02,01,9.70
2012,09,26,02,02,9.70
2012,09,26,02,03,9.70
2012,09,26,02,04,9.60
2012,09,26,02,05,9.60
2012,09,26,02,06,9.60
2012,09,26,02,07,9.60
2012,09,26,02,08,9.60
2012,09,26,02,09,9.60
2012,09,26,02,10,9.60
2012,09,26,02,11,9.60
2012,09,26,02,12,9.60
2012,09,26,02,13,9.60
2012,09,26,02,14,9.50
2012,09,26,02,15,9.50
2012,09,26,02,16,9.50
2012,09,26,02,17,9.50
2012,09,26,02,18,9.50
2012,09,26,02,19,9.50
2012,09,26,02,20,9.50
2012,09,26,02,21,9.50
2012,09,26,02,22,9.50
2012,09,26,02,23,9.50
2012,09,26,02,24,9.50
2012,09,26,02,25,9.50
2012,09,26,02,26,9.50
2012,09,26,02,27,9.40
2012,09,26,02,28,9.40
2012,09,26,02,29,9.40
2012,09,26,02,30,9.40
2012,09,26,02,31,9.40
2012,09,26,02,32,9.40
2012,09,26,02,33,9.40
2012,09,26,02,34,9.40
2012,09,26,02,35,9.40
2012,09,26,02,36,9.40
2012,09,26,02,37,9.40
2012,09,26,02,38,9.40
2012,09,26,02,39,9.40
2012,09,26,02,40,9.40
2012,09,26,02,41,9.40
2012,09,26,02,42,9.40
2012,09,26,02,43,9.40
2012,09,26,02,44,9.40
2012,09,26,02,45,9.40
2012,09,26,02,46,9.40
2012,09,26,02,47,9.30
2012,09,26,02,48,9.40
2012,09,26,02,49,9.30
2012,09,26,02,50,9.30
2012,09,26,02,51,9.30
2012,09,26,02,52,9.30
2012,09,26,02,53,9.30
2012,09,26,02,54,9.30
2012,09,26,02,55,9.30
2012,09,26,02,56,9.30
2012,09,26,02,57,9.30
2012,09,26,02,58,9.30
2012,09,26,02,59,9.30
2012,09,26,03,00,9.30
2012,09,26,03,01,9.30
2012,09,26,03,02,9.30
2012,09,26,03,03,9.30
2012,09,26,03,04,9.30
2012,09,26,03,05,9.20
2012,09,26,03,06,9.20
2012,09,26,03,07,9.20
2012,09,26,03,08,9.20
2012,09,26,03,09,9.20
2012,09,26,03,10,9.20
2012,09,26,03,11,9.20
2012,09,26,03,12,9.20
2012,09,26,03,13,9.20
2012,09,26,03,14,9.20
2012,09,26,03,15,9.20
2012,09,26,03,16,9.20
2012,09,26,03,17,9.20
2012,09,26,03,18,9.20
2012,09,26,03,19,9.10
2012,09,26,03,20,9.10
2012,09,26,03,21,9.10
2012,09,26,03,22,9.10
2012,09,26,03,23,9.10
2012,09,26,03,24,9.10
2012,09,26,03,25,9.10
2012,09,26,03,26,9.10
2012,09,26,03,27,9.10
2012,09,26,03,28,9.10
2012,09,26,03,29,9.10
2012,09,26,03,30,9.10
2012,09,26,03,31,9.10
2012,09,26,03,32,9.10
2012,09,26,03,33,9.10
2012,09,26,03,34,9.10
2012,09,26,03,35,9.10
2012,09,26,03,36,9.10
2012,09,26,03,37,9.10
2012,09,26,03,38,9.10
2012,09,26,03,39,9.10
2012,09,26,03,40,9.10
2012,09,26,03,41,9.10
2012,09,26,03,42,9.00
2012,09,26,03,43,9.00
2012,09,26,03,44,9.00
2012,09,26,03,45,9.00
2012,09,26,03,46,8.90
2012,09,26,03,47,8.90
2012,09,26,03,48,8.90
2012,09,26,03,49,8.80
2012,09,26,03,50,8.80
2012,09,26,03,51,8.80
2012,09,26,03,52,8.80
2012,09,26,03,53,8.70
2012,09,26,03,54,8.70
2012,09,26,03,55,8.70
2012,09,26,03,56,8.70
2012,09,26,03,57,8.60
2012,09,26,03,58,8.60
2012,09,26,03,59,8.60
2012,09,26,04,00,8.50
2012,09,26,04,01,8.50
2012,09,26,04,02,8.50
2012,09,26,04,03,8.40
2012,09,26,04,04,8.40
2012,09,26,04,05,8.40
2012,09,26,04,06,8.40
2012,09,26,04,07,8.30
2012,09,26,04,08,8.30
2012,09,26,04,09,8.30
2012,09,26,04,10,8.30
2012,09,26,04,11,8.20
2012,09,26,04,12,8.20
2012,09,26,04,13,8.20
2012,09,26,04,14,8.20
2012,09,26,04,15,8.20
2012,09,26,04,16,8.20
2012,09,26,04,17,8.20
2012,09,26,04,18,8.20
2012,09,26,04,19,8.20
2012,09,26,04,20,8.20
2012,09,26,04,21,8.20
2012,09,26,04,22,8.20
2012,09,26,04,23,8.20
2012,09,26,04,24,8.20
2012,09,26,04,25,8.20
2012,09,26,04,26,8.20
2012,09,26,04,27,8.20
2012,09,26,04,28,8.20
2012,09,26,04,29,8.30
2012,09,26,04,30,8.30
2012,09,26,04,31,8.30
2012,09,26,04,32,8.30
2012,09,26,04,33,8.30
2012,09,26,04,34,8.30
2012,09,26,04,35,8.30
2012,09,26,04,36,8.30
2012,09,26,04,37,8.30
2012,09,26,04,38,8.40
2012,09,26,04,39,8.40
2012,09,26,04,40,8.40
2012,09,26,04,41,8.40
2012,09,26,04,42,8.40
2012,09,26,04,43,8.40
2012,09,26,04,44,8.40
2012,09,26,04,45,8.40
2012,09,26,04,46,8.40
2012,09,26,04,47,8.40
2012,09,26,04,48,8.40
2012,09,26,04,49,8.40
2012,09,26,04,50,8.40
2012,09,26,04,51,8.40
2012,09,26,04,52,8.30
2012,09,26,04,53,8.30
2012,09,26,04,54,8.30
2012,09,26,04,55,8.30
2012,09,26,04,56,8.30
2012,09,26,04,57,8.30
2012,09,26,04,58,8.20
2012,09,26,04,59,8.20
2012,09,26,05,00,8.20
2012,09,26,05,01,8.20
2012,09,26,05,02,8.20
2012,09,26,05,03,8.20
2012,09,26,05,04,8.20
2012,09,26,05,05,8.20
2012,09,26,05,06,8.20
2012,09,26,05,07,8.20
2012,09,26,05,08,8.20
2012,09,26,05,09,8.20
2012,09,26,05,10,8.20
2012,09,26,05,11,8.10
2012,09,26,05,12,8.10
2012,09,26,05,13,8.10
2012,09,26,05,14,8.10
2012,09,26,05,15,8.10
2012,09,26,05,16,8.10
2012,09,26,05,17,8.10
2012,09,26,05,18,8.10
2012,09,26,05,19,8.10
2012,09,26,05,20,8.10
2012,09,26,05,21,8.10
2012,09,26,05,22,8.10
2012,09,26,05,23,8.10
2012,09,26,05,24,8.20
2012,09,26,05,25,8.20
2012,09,26,05,26,8.20
2012,09,26,05,27,8.20
2012,09,26,05,28,8.30
2012,09,26,05,29,8.30
2012,09,26,05,30,8.30
2012,09,26,05,31,8.30
2012,09,26,05,32,8.30
2012,09,26,05,33,8.40
2012,09,26,05,34,8.40
2012,09,26,05,35,8.40
2012,09,26,05,36,8.40
2012,09,26,05,37,8.40
2012,09,26,05,38,8.40
2012,09,26,05,39,8.40
2012,09,26,05,40,8.40
2012,09,26,05,41,8.40
2012,09,26,05,42,8.40
2012,09,26,05,43,8.40
2012,09,26,05,44,8.40
2012,09,26,05,45,8.40
2012,09,26,05,46,8.30
2012,09,26,05,47,8.30
2012,09,26,05,48,8.30
2012,09,26,05,49,8.30
2012,09,26,05,50,8.30
2012,09,26,05,51,8.30
2012,09,26,05,52,8.20
2012,09,26,05,53,8.20
2012,09,26,05,54,8.20
2012,09,26,05,55,8.20
2012,09,26,05,56,8.20
2012,09,26,05,57,8.20
2012,09,26,05,58,8.10
2012,09,26,05,59,8.10
2012,09,26,06,00,8.10
2012,09,26,06,01,8.10
2012,09,26,06,02,8.10
2012,09,26,06,03,8.10
2012,09,26,06,04,8.10
2012,09,26,06,05,8.10
2012,09,26,06,06,8.10
2012,09,26,06,07,8.10
2012,09,26,06,08,8.10
2012,09,26,06,09,8.10
2012,09,26,06,10,8.10
2012,09,26,06,11,8.10
2012,09,26,06,12,8.10
2012,09,26,06,13,8.10
2012,09,26,06,14,8.10
2012,09,26,06,15,8.10
2012,09,26,06,16,8.10
2012,09,26,06,17,8.10
2012,09,26,06,18,8.10
2012,09,26,06,19,8.10
2012,09,26,06,20,8.20
2012,09,26,06,21,8.20
2012,09,26,06,22,8.20
2012,09,26,06,23,8.20
2012,09,26,06,24,8.20
2012,09,26,06,25,8.20
2012,09,26,06,26,8.20
2012,09,26,06,27,8.20
2012,09,26,06,28,8.20
2012,09,26,06,29,8.20
2012,09,26,06,30,8.20
2012,09,26,06,31,8.20
2012,09,26,06,32,8.20
2012,09,26,06,33,8.20
2012,09,26,06,34,8.10
2012,09,26,06,35,8.10
2012,09,26,06,36,8.10
2012,09,26,06,37,8.10
2012,09,26,06,38,8.00
2012,09,26,06,39,8.00
2012,09,26,06,40,8.00
2012,09,26,06,41,8.00
2012,09,26,06,42,8.00
2012,09,26,06,43,7.90
2012,09,26,06,44,7.90
2012,09,26,06,45,7.90
2012,09,26,06,46,7.90
2012,09,26,06,47,7.90
2012,09,26,06,48,7.90
2012,09,26,06,49,7.90
2012,09,26,06,50,7.90
2012,09,26,06,51,7.80
2012,09,26,06,52,7.80
2012,09,26,06,53,7.80
2012,09,26,06,54,7.80
2012,09,26,06,55,7.80
2012,09,26,06,56,7.80
2012,09,26,06,57,7.80
2012,09,26,06,58,7.80
2012,09,26,06,59,7.80
2012,09,26,07,00,7.80
2012,09,26,07,01,7.80
2012,09,26,07,02,7.70
2012,09,26,07,03,7.70
2012,09,26,07,04,7.70
2012,09,26,07,05,7.70
2012,09,26,07,06,7.70
2012,09,26,07,07,7.70
2012,09,26,07,08,7.70
2012,09,26,07,09,7.70
2012,09,26,07,10,7.60
2012,09,26,07,11,7.60
2012,09,26,07,12,7.60
2012,09,26,07,13,7.60
2012,09,26,07,14,7.60
2012,09,26,07,15,7.60
2012,09,26,07,16,7.60
2012,09,26,07,17,7.60
2012,09,26,07,18,7.60
2012,09,26,07,19,7.60
2012,09,26,07,20,7.60
2012,09,26,07,21,7.60
2012,09,26,07,22,7.60
2012,09,26,07,23,7.60
2012,09,26,07,24,7.70
2012,09,26,07,25,7.70
2012,09,26,07,26,7.70
2012,09,26,07,27,7.70
2012,09,26,07,28,7.70
2012,09,26,07,29,7.70
2012,09,26,07,30,7.70
2012,09,26,07,31,7.80
2012,09,26,07,32,7.80
2012,09,26,07,33,7.90
2012,09,26,07,34,7.90
2012,09,26,07,35,7.90
2012,09,26,07,36,8.00
2012,09,26,07,37,8.00
2012,09,26,07,38,8.00
2012,09,26,07,39,8.00
2012,09,26,07,40,8.10
2012,09,26,07,41,8.10
2012,09,26,07,42,8.10
2012,09,26,07,43,8.10
2012,09,26,07,44,8.10
2012,09,26,07,45,8.20
2012,09,26,07,46,8.20
2012,09,26,07,47,8.20
2012,09,26,07,48,8.30
2012,09,26,07,49,8.30
2012,09,26,07,50,8.30
2012,09,26,07,51,8.40
2012,09,26,07,52,8.40
2012,09,26,07,53,8.40
2012,09,26,07,54,8.40
2012,09,26,07,55,8.40
2012,09,26,07,56,8.40
2012,09,26,07,57,8.40
2012,09,26,07,58,8.40
2012,09,26,07,59,8.40
2012,09,26,08,00,8.50
2012,09,26,08,01,8.50
2012,09,26,08,02,8.50
2012,09,26,08,03,8.50
2012,09,26,08,04,8.50
2012,09,26,08,05,8.50
2012,09,26,08,06,8.50
2012,09,26,08,07,8.60
2012,09,26,08,08,8.60
2012,09,26,08,09,8.60
2012,09,26,08,10,8.70
2012,09,26,08,11,8.70
2012,09,26,08,12,8.70
2012,09,26,08,13,8.70
2012,09,26,08,14,8.70
2012,09,26,08,15,8.70
2012,09,26,08,16,8.70
2012,09,26,08,17,8.70
2012,09,26,08,18,8.70
2012,09,26,08,19,8.70
2012,09,26,08,20,8.60
2012,09,26,08,21,8.60
2012,09,26,08,22,8.60
2012,09,26,08,23,8.60
2012,09,26,08,24,8.60
2012,09,26,08,25,8.60
2012,09,26,08,26,8.60
2012,09,26,08,27,8.60
2012,09,26,08,28,8.60
2012,09,26,08,29,8.60
2012,09,26,08,30,8.60
2012,09,26,08,31,8.60
2012,09,26,08,32,8.60
2012,09,26,08,33,8.60
2012,09,26,08,34,8.60
2012,09,26,08,35,8.60
2012,09,26,08,36,8.60
2012,09,26,08,37,8.60
2012,09,26,08,38,8.60
2012,09,26,08,39,8.60
2012,09,26,08,40,8.70
2012,09,26,08,41,8.70
2012,09,26,08,42,8.70
2012,09,26,08,43,8.70
2012,09,26,08,44,8.70
2012,09,26,08,45,8.70
2012,09,26,08,46,8.80
2012,09,26,08,47,8.80
2012,09,26,08,48,8.80
2012,09,26,08,49,8.80
2012,09,26,08,50,8.80
2012,09,26,08,51,8.90
2012,09,26,08,52,8.90
2012,09,26,08,53,9.00
2012,09,26,08,54,9.00
2012,09,26,08,55,9.10
2012,09,26,08,56,9.20
2012,09,26,08,57,9.20
2012,09,26,08,58,9.30
2012,09,26,08,59,9.30
2012,09,26,09,00,9.40
2012,09,26,09,01,9.40
2012,09,26,09,02,9.50
2012,09,26,09,03,9.50
2012,09,26,09,04,9.60
2012,09,26,09,05,9.70
2012,09,26,09,06,9.70
2012,09,26,09,07,9.80
2012,09,26,09,08,9.80
2012,09,26,09,09,9.90
2012,09,26,09,10,9.90
2012,09,26,09,11,10.00
2012,09,26,09,12,10.00
2012,09,26,09,13,10.10
2012,09,26,09,14,10.10
2012,09,26,09,15,10.20
2012,09,26,09,16,10.20
2012,09,26,09,17,10.30
2012,09,26,09,18,10.30
2012,09,26,09,19,10.40
2012,09,26,09,20,10.40
2012,09,26,09,21,10.50
2012,09,26,09,22,10.50
2012,09,26,09,23,10.60
2012,09,26,09,24,10.60
2012,09,26,09,25,10.70
2012,09,26,09,26,10.70
2012,09,26,09,27,10.80
2012,09,26,09,28,10.80
2012,09,26,09,29,10.90
2012,09,26,09,30,10.90
2012,09,26,09,31,11.00
2012,09,26,09,32,11.10
2012,09,26,09,33,11.10
2012,09,26,09,34,11.20
2012,09,26,09,35,11.20
2012,09,26,09,36,11.30
2012,09,26,09,37,11.30
2012,09,26,09,38,11.40
2012,09,26,09,39,11.50
2012,09,26,09,40,11.60
2012,09,26,09,41,11.70
2012,09,26,09,42,11.70
2012,09,26,09,43,11.80
2012,09,26,09,44,11.80
2012,09,26,09,45,11.90
2012,09,26,09,46,11.90
2012,09,26,09,47,12.00
2012,09,26,09,48,12.00
2012,09,26,09,49,12.10
2012,09,26,09,50,12.10
2012,09,26,09,51,12.20
2012,09,26,09,52,12.20
2012,09,26,09,53,12.30
2012,09,26,09,54,12.30
2012,09,26,09,55,12.30
2012,09,26,09,56,12.30
2012,09,26,09,57,12.40
2012,09,26,09,58,12.40
2012,09,26,09,59,12.50
2012,09,26,10,00,12.50
2012,09,26,10,01,12.60
2012,09,26,10,02,12.60
2012,09,26,10,03,12.70
2012,09,26,10,04,12.70
2012,09,26,10,05,12.70
2012,09,26,10,06,12.80
2012,09,26,10,07,12.80
2012,09,26,10,08,12.90
2012,09,26,10,09,13.00
2012,09,26,10,10,13.00
2012,09,26,10,11,13.10
2012,09,26,10,12,13.20
2012,09,26,10,13,13.30
2012,09,26,10,14,13.30
2012,09,26,10,15,13.40
2012,09,26,10,16,13.50
2012,09,26,10,17,13.50
2012,09,26,10,18,13.60
2012,09,26,10,19,13.60
2012,09,26,10,20,13.70
2012,09,26,10,21,13.70
2012,09,26,10,22,13.80
2012,09,26,10,23,13.80
2012,09,26,10,24,13.80
2012,09,26,10,25,13.90
2012,09,26,10,26,13.90
2012,09,26,10,27,13.90
2012,09,26,10,28,13.90
2012,09,26,10,29,14.00
2012,09,26,10,30,14.00
2012,09,26,10,31,14.10
2012,09,26,10,32,14.10
2012,09,26,10,33,14.10
2012,09,26,10,34,14.20
2012,09,26,10,35,14.20
2012,09,26,10,36,14.20
2012,09,26,10,37,14.20
2012,09,26,10,38,14.30
2012,09,26,10,39,14.30
2012,09,26,10,40,14.40
2012,09,26,10,41,14.40
2012,09,26,10,42,14.50
2012,09,26,10,43,14.50
2012,09,26,10,44,14.60
2012,09,26,10,45,14.60
2012,09,26,10,46,14.70
2012,09,26,10,47,14.70
2012,09,26,10,48,14.70
2012,09,26,10,49,14.70
2012,09,26,10,50,14.80
2012,09,26,10,51,14.80
2012,09,26,10,52,14.90
2012,09,26,10,53,14.90
2012,09,26,10,54,14.90
2012,09,26,10,55,15.00
2012,09,26,10,56,15.00
2012,09,26,10,57,15.10
2012,09,26,10,58,15.10
2012,09,26,10,59,15.10
2012,09,26,11,00,15.20
2012,09,26,11,01,15.20
2012,09,26,11,02,15.20
2012,09,26,11,03,15.20
2012,09,26,11,04,15.20
2012,09,26,11,05,15.20
2012,09,26,11,06,15.10
2012,09,26,11,07,15.10
2012,09,26,11,08,15.10
2012,09,26,11,09,15.10
2012,09,26,11,10,15.10
2012,09,26,11,11,15.10
2012,09,26,11,12,15.20
2012,09,26,11,13,15.10
2012,09,26,11,14,15.10
2012,09,26,11,15,15.10
2012,09,26,11,16,15.10
2012,09,26,11,17,15.10
2012,09,26,11,18,15.10
2012,09,26,11,19,15.10
2012,09,26,11,20,15.10
2012,09,26,11,21,15.00
2012,09,26,11,22,15.00
2012,09,26,11,23,15.00
2012,09,26,11,24,15.00
2012,09,26,11,25,15.00
2012,09,26,11,26,15.10
2012,09,26,11,27,15.10
2012,09,26,11,28,15.10
2012,09,26,11,29,15.10
2012,09,26,11,30,15.20
2012,09,26,11,31,15.20
2012,09,26,11,32,15.30
2012,09,26,11,33,15.30
2012,09,26,11,34,15.40
2012,09,26,11,35,15.50
2012,09,26,11,36,15.50
2012,09,26,11,37,15.60
2012,09,26,11,38,15.70
2012,09,26,11,39,15.70
2012,09,26,11,40,15.80
2012,09,26,11,41,15.80
2012,09,26,11,42,15.90
2012,09,26,11,43,16.00
2012,09,26,11,44,16.00
2012,09,26,11,45,16.10
2012,09,26,11,46,16.10
2012,09,26,11,47,16.20
2012,09,26,11,48,16.20
2012,09,26,11,49,16.20
2012,09,26,11,50,16.20
2012,09,26,11,51,16.20
2012,09,26,11,52,16.20
2012,09,26,11,53,16.20
2012,09,26,11,54,16.20
2012,09,26,11,55,16.20
2012,09,26,11,56,16.20
2012,09,26,11,57,16.30
2012,09,26,11,58,16.30
2012,09,26,11,59,16.30
2012,09,26,12,00,16.30
2012,09,26,12,01,16.30
2012,09,26,12,02,16.20
2012,09,26,12,03,16.20
2012,09,26,12,04,16.20
2012,09,26,12,05,16.20
2012,09,26,12,06,16.30
2012,09,26,12,07,16.30
2012,09,26,12,08,16.40
2012,09,26,12,09,16.50
2012,09,26,12,10,16.60
2012,09,26,12,11,16.60
2012,09,26,12,12,16.70
2012,09,26,12,13,16.80
2012,09,26,12,14,16.90
2012,09,26,12,15,17.00
2012,09,26,12,16,17.00
2012,09,26,12,17,17.00
2012,09,26,12,18,17.00
2012,09,26,12,19,17.10
2012,09,26,12,20,17.10
2012,09,26,12,21,17.10
2012,09,26,12,22,17.10
2012,09,26,12,23,17.10
2012,09,26,12,24,17.10
2012,09,26,12,25,17.10
2012,09,26,12,26,17.10
2012,09,26,12,27,17.10
2012,09,26,12,28,17.20
2012,09,26,12,29,17.20
2012,09,26,12,30,17.20
2012,09,26,12,31,17.20
2012,09,26,12,32,17.20
2012,09,26,12,33,17.10
2012,09,26,12,34,17.00
2012,09,26,12,35,16.90
2012,09,26,12,36,16.70
2012,09,26,12,37,16.60
2012,09,26,12,38,16.50
2012,09,26,12,39,16.40
2012,09,26,12,40,16.20
2012,09,26,12,41,16.00
2012,09,26,12,42,15.80
2012,09,26,12,43,15.70
2012,09,26,12,44,15.60
2012,09,26,12,45,15.50
2012,09,26,12,46,15.40
2012,09,26,12,47,15.30
2012,09,26,12,48,15.20
2012,09,26,12,49,15.20
2012,09,26,12,50,15.20
2012,09,26,12,51,15.10
2012,09,26,12,52,15.10
2012,09,26,12,53,15.00
2012,09,26,12,54,15.00
2012,09,26,12,55,14.90
2012,09,26,12,56,14.90
2012,09,26,12,57,14.80
2012,09,26,12,58,14.80
2012,09,26,12,59,14.80
2012,09,26,13,00,14.80
2012,09,26,13,01,14.70
2012,09,26,13,02,14.70
2012,09,26,13,03,14.70
2012,09,26,13,04,14.70
2012,09,26,13,05,14.70
2012,09,26,13,06,14.70
2012,09,26,13,07,14.70
2012,09,26,13,08,14.70
2012,09,26,13,09,14.70
2012,09,26,13,10,14.60
2012,09,26,13,11,14.60
2012,09,26,13,12,14.60
2012,09,26,13,13,14.60
2012,09,26,13,14,14.60
2012,09,26,13,15,14.60
2012,09,26,13,16,14.60
2012,09,26,13,17,14.60
2012,09,26,13,18,14.60
2012,09,26,13,19,14.60
2012,09,26,13,20,14.70
2012,09,26,13,21,14.70
2012,09,26,13,22,14.80
2012,09,26,13,23,14.80
2012,09,26,13,24,14.90
2012,09,26,13,25,14.90
2012,09,26,13,26,15.00
2012,09,26,13,27,15.00
2012,09,26,13,28,15.10
2012,09,26,13,29,15.20
2012,09,26,13,30,15.20
2012,09,26,13,31,15.30
2012,09,26,13,32,15.30
2012,09,26,13,33,15.30
2012,09,26,13,34,15.40
2012,09,26,13,35,15.40
2012,09,26,13,36,15.50
2012,09,26,13,37,15.50
2012,09,26,13,38,15.50
2012,09,26,13,39,15.50
2012,09,26,13,40,15.50
2012,09,26,13,41,15.50
2012,09,26,13,42,15.50
2012,09,26,13,43,15.50
2012,09,26,13,44,15.50
2012,09,26,13,45,15.60
2012,09,26,13,46,15.60
2012,09,26,13,47,15.60
2012,09,26,13,48,15.60
2012,09,26,13,49,15.60
2012,09,26,13,50,15.60
2012,09,26,13,51,15.60
2012,09,26,13,52,15.70
2012,09,26,13,53,15.70
2012,09,26,13,54,15.70
2012,09,26,13,55,15.70
2012,09,26,13,56,15.80
2012,09,26,13,57,15.80
2012,09,26,13,58,15.80
2012,09,26,13,59,15.80
2012,09,26,14,00,15.90
2012,09,26,14,01,15.90
2012,09,26,14,02,16.00
2012,09,26,14,03,16.00
2012,09,26,14,04,16.10
2012,09,26,14,05,16.10
2012,09,26,14,06,16.10
2012,09,26,14,07,16.10
2012,09,26,14,08,16.10
2012,09,26,14,09,16.10
2012,09,26,14,10,16.10
2012,09,26,14,11,16.10
2012,09,26,14,12,16.10
2012,09,26,14,13,16.10
2012,09,26,14,14,16.10
2012,09,26,14,15,16.00
2012,09,26,14,16,16.00
2012,09,26,14,17,15.90
2012,09,26,14,18,15.90
2012,09,26,14,19,15.80
2012,09,26,14,20,15.80
2012,09,26,14,21,15.80
2012,09,26,14,22,15.80
2012,09,26,14,23,15.90
2012,09,26,14,24,15.90
2012,09,26,14,25,16.00
2012,09,26,14,26,16.00
2012,09,26,14,27,16.10
2012,09,26,14,28,16.10
2012,09,26,14,29,16.20
2012,09,26,14,30,16.20
2012,09,26,14,31,16.20
2012,09,26,14,32,16.30
2012,09,26,14,33,16.30
2012,09,26,14,34,16.30
2012,09,26,14,35,16.40
2012,09,26,14,36,16.40
2012,09,26,14,37,16.40
2012,09,26,14,38,16.40
2012,09,26,14,39,16.40
2012,09,26,14,40,16.40
2012,09,26,14,41,16.30
2012,09,26,14,42,16.20
2012,09,26,14,43,16.10
2012,09,26,14,44,16.10
2012,09,26,14,45,16.10
2012,09,26,14,46,16.00
2012,09,26,14,47,15.90
2012,09,26,14,48,15.90
2012,09,26,14,49,15.90
2012,09,26,14,50,15.90
2012,09,26,14,51,15.90
2012,09,26,14,52,15.80
2012,09,26,14,53,15.80
2012,09,26,14,54,15.90
2012,09,26,14,55,15.90
2012,09,26,14,56,15.90
2012,09,26,14,57,15.90
2012,09,26,14,58,16.00
2012,09,26,14,59,16.00
2012,09,26,15,00,15.90
2012,09,26,15,01,15.90
2012,09,26,15,02,16.00
2012,09,26,15,03,16.00
2012,09,26,15,04,16.10
2012,09,26,15,05,16.10
2012,09,26,15,06,16.10
2012,09,26,15,07,16.10
2012,09,26,15,08,16.10
2012,09,26,15,09,16.10
2012,09,26,15,10,16.10
2012,09,26,15,11,16.10
2012,09,26,15,12,16.10
2012,09,26,15,13,16.10
2012,09,26,15,14,16.10
2012,09,26,15,15,16.00
2012,09,26,15,16,16.00
2012,09,26,15,17,16.00
2012,09,26,15,18,15.90
2012,09,26,15,19,15.90
2012,09,26,15,20,15.90
2012,09,26,15,21,15.90
2012,09,26,15,22,15.90
2012,09,26,15,23,15.90
2012,09,26,15,24,15.90
2012,09,26,15,25,15.80
2012,09,26,15,26,15.80
2012,09,26,15,27,15.80
2012,09,26,15,28,15.80
2012,09,26,15,29,15.80
2012,09,26,15,30,15.80
2012,09,26,15,31,15.80
2012,09,26,15,32,15.80
2012,09,26,15,33,15.90
2012,09,26,15,34,15.90
2012,09,26,15,35,15.90
2012,09,26,15,36,16.00
2012,09,26,15,37,16.00
2012,09,26,15,38,16.00
2012,09,26,15,39,16.10
2012,09,26,15,40,16.10
2012,09,26,15,41,16.20
2012,09,26,15,42,16.20
2012,09,26,15,43,16.30
2012,09,26,15,44,16.30
2012,09,26,15,45,16.30
2012,09,26,15,46,16.30
2012,09,26,15,47,16.40
2012,09,26,15,48,16.40
2012,09,26,15,49,16.50
2012,09,26,15,50,16.50
2012,09,26,15,51,16.60
2012,09,26,15,52,16.70
2012,09,26,15,53,16.70
2012,09,26,15,54,16.70
2012,09,26,15,55,16.70
2012,09,26,15,56,16.70
2012,09,26,15,57,16.70
2012,09,26,15,58,16.80
2012,09,26,15,59,16.80
2012,09,26,16,00,16.80
2012,09,26,16,01,16.90
2012,09,26,16,02,16.90
2012,09,26,16,03,16.90
2012,09,26,16,04,16.90
2012,09,26,16,05,16.90
2012,09,26,16,06,16.90
2012,09,26,16,07,16.90
2012,09,26,16,08,17.00
2012,09,26,16,09,16.90
2012,09,26,16,10,16.90
2012,09,26,16,11,16.90
2012,09,26,16,12,16.80
2012,09,26,16,13,16.80
2012,09,26,16,14,16.80
2012,09,26,16,15,16.80
2012,09,26,16,16,16.90
2012,09,26,16,17,16.90
2012,09,26,16,18,16.90
2012,09,26,16,19,16.90
2012,09,26,16,20,16.90
2012,09,26,16,21,16.90
2012,09,26,16,22,16.90
2012,09,26,16,23,16.80
2012,09,26,16,24,16.80
2012,09,26,16,25,16.80
2012,09,26,16,26,16.90
2012,09,26,16,27,16.90
2012,09,26,16,28,16.90
2012,09,26,16,29,16.90
2012,09,26,16,30,16.90
2012,09,26,16,31,17.00
2012,09,26,16,32,17.10
2012,09,26,16,33,17.10
2012,09,26,16,34,17.10
2012,09,26,16,35,17.10
2012,09,26,16,36,17.10
2012,09,26,16,37,17.10
2012,09,26,16,38,17.10
2012,09,26,16,39,17.20
2012,09,26,16,40,17.20
2012,09,26,16,41,17.20
2012,09,26,16,42,17.20
2012,09,26,16,43,17.20
2012,09,26,16,44,17.20
2012,09,26,16,45,17.30
2012,09,26,16,46,17.30
2012,09,26,16,47,17.30
2012,09,26,16,48,17.40
2012,09,26,16,49,17.40
2012,09,26,16,50,17.40
2012,09,26,16,51,17.40
2012,09,26,16,52,17.40
2012,09,26,16,53,17.40
2012,09,26,16,54,17.40
2012,09,26,16,55,17.40
2012,09,26,16,56,17.50
2012,09,26,17,09,17.50
2012,09,26,17,10,17.50
2012,09,26,17,11,17.60
2012,09,26,17,12,17.60
2012,09,26,17,13,17.60
2012,09,26,17,14,17.70
2012,09,26,17,15,17.70
2012,09,26,17,16,17.70
2012,09,26,17,17,17.70
2012,09,26,17,18,17.70
2012,09,26,17,19,17.70
2012,09,26,17,20,17.70
2012,09,26,17,21,17.70
2012,09,26,17,22,17.70
2012,09,26,17,23,17.70
2012,09,26,17,24,17.70
2012,09,26,17,25,17.70
2012,09,26,17,26,17.70
2012,09,26,17,27,17.70
2012,09,26,17,28,17.70
2012,09,26,17,29,17.60
2012,09,26,17,30,17.60
2012,09,26,17,31,17.60
2012,09,26,17,32,17.60
2012,09,26,17,33,17.60
2012,09,26,17,34,17.50
2012,09,26,17,35,17.50
2012,09,26,17,36,17.50
2012,09,26,17,37,17.40
2012,09,26,17,38,17.40
2012,09,26,17,39,17.30
2012,09,26,17,40,17.30
2012,09,26,17,41,17.30
2012,09,26,17,42,17.30
2012,09,26,17,43,17.20
2012,09,26,17,44,17.30
2012,09,26,17,45,17.30
2012,09,26,17,46,17.30
2012,09,26,17,47,17.30
2012,09,26,17,48,17.20
2012,09,26,17,49,17.20
2012,09,26,17,50,17.10
2012,09,26,17,51,17.10
2012,09,26,17,52,17.10
2012,09,26,17,53,17.10
2012,09,26,17,54,17.10
2012,09,26,17,55,17.10